Location: Unspecified
(0.0000°N, 0.0000°E)
Time: 01:36:46
(UTC+00:00)

Vanguard 3 - Visible Passes

Search period start: 20 February 2017 00:00
Search period end: 02 March 2017 00:00
Orbit: 508 x 3266 km, 33.4° (Epoch: 18 February)

Date Brightness Start Highest point End Pass type
(mag) Time Alt. Az. Time Alt. Az. Time Alt. Az.
20 Feb 10.3 02:50:44 14° NE 02:50:44 14° NE 02:51:56 10° NE visible
20 Feb 9.6 04:55:21 17° NW 04:58:15 19° NNW 05:06:11 10° NNE visible
21 Feb 9.7 03:46:11 21° N 03:46:11 21° N 03:50:40 10° NNE visible
22 Feb 9.8 04:41:35 14° NNW 04:43:21 14° NNW 04:48:36 10° NNE visible
23 Feb 10.2 03:32:19 13° NNE 03:32:19 13° NNE 03:33:40 10° NNE visible
